Tracking 25934 objects as of 10-Aug-2022
HD Live streaming from Space Station
objects crossing your sky now

CE-SAT IIB

Track CE-SAT IIB now!
10-day predictions


NORAD ID: 46818
Int'l Code: 2020-077F
Perigee: 507.7 km
Apogee: 525.7 km
Inclination: 97.4 °
Period: 94.8 minutes
Semi major axis: 6887 km
RCS: Unknown
Launch date: October 28, 2020
Source: Japan (JPN)
Launch site: Rocket Lab Launch Complex (RLLC)
aabbcc
Your satellite tracking list
Your tracking list is empty




NASA's NSSDC Master Catalog

Two Line Element Set (TLE):
1 46818U 20077F   22222.59063738  .00002692  00000-0  13259-3 0  9996
2 46818  97.4153 283.8811 0013054 196.7059 163.3747 15.18755884 98672
Source of the keplerian elements: AFSPC